Regional Weather Roundup
Issued by NWS

Home | Current Version | Previous Version | Graphics & Text | Print | Product List | Glossary On
Versions: 1 2 3 4 5 6 7 8 9 10 11 12 13 14 15 16 17 18 19 20 21 22 23 24 25 26 27 28 29 30 31 32 33 34 35 36 37 38 39 40 41 42 43 44 45 46 47 48 49 50
000
ASUS43 KMKX 210011
RWRWI

WISCONSIN REGIONAL WEATHER ROUNDUP
NATIONAL WEATHER SERVICE MILWAUKEE/SULLIVAN WI
600 PM CST THU NOV 20 2014

NOTE: "FAIR" INDICATES FEW OR NO CLOUDS BELOW 12,000 FEET WITH NO
SIGNIFICANT WEATHER AND/OR OBSTRUCTIONS TO VISIBILITY.

WIZ001-002-006>008-014>016-023>028-210100-
NORTHWEST WISCONSIN

CITY           SKY/WX    TMP DP  RH WIND       PRES   REMARKS
SUPERIOR ARPT  CLEAR     11  -2  57 W3        30.16R
6HR MIN TEMP:  11; 6HR MAX TEMP:  17;

ASHLAND        PTCLDY     7   0  73 W8        30.13R WCI  -6
6HR MIN TEMP:   6; 6HR MAX TEMP:  13; 6HR PCP: TRACE;

HAYWARD        CLEAR     11  -3  53 CALM      30.12R
6HR MIN TEMP:  11; 6HR MAX TEMP:  16;

SIREN          CLEAR      8  -3  62 W5        30.17R WCI  -1
6HR MIN TEMP:   8; 6HR MAX TEMP:  16;

CUMBERLAND     CLEAR      9  -4  56 W5        30.14R WCI   0
RICE LAKE      CLEAR      9  -2  60 W3        30.16R
6HR MIN TEMP:   9; 6HR MAX TEMP:  15;

CHETEK         CLEAR      8  -1  66 W3        30.16R
6HR MIN TEMP:   8; 6HR MAX TEMP:  15;

LADYSMITH      CLEAR     10   0  61 W3        30.13R
6HR MIN TEMP:  10; 6HR MAX TEMP:  15;

EAU CLAIRE     CLEAR     10  -2  58 NW7       30.17R WCI  -1
6HR MIN TEMP:  10; 6HR MAX TEMP:  15;

MENOMONIE      CLEAR     12  -1  56 W5        30.18R WCI   4
6HR MIN TEMP:  12; 6HR MAX TEMP:  17;

NEW RICHMOND   CLEAR     10  -2  59 W5        30.18R WCI   2
6HR MIN TEMP:  10; 6HR MAX TEMP:  16;

OSCEOLA        CLEAR     11  -1  59 W5        30.21S WCI   3
6HR MIN TEMP:  11; 6HR MAX TEMP:  17;

$$

WIZ003>005-009-010-017-018-210100-
NORTH CENTRAL WISCONSIN

CITY           SKY/WX    TMP DP  RH WIND       PRES   REMARKS
MANITOWISH WTR CLOUDY     7   1  78 W9        30.03R WCI  -7
6HR MIN TEMP:   6; 6HR MAX TEMP:  10;

ARBOR VITAE    MOCLDY    11   4  73 NW7       30.03R WCI   1
6HR MIN TEMP:   9; 6HR MAX TEMP:  11;

WOODRUFF       MOCLDY    11   4  73 NW7       30.03R WCI   1
6HR MIN TEMP:   9; 6HR MAX TEMP:  11;

RHINELANDER    MOCLDY     3  -4  72 W7        30.04R WCI  -9
6HR MIN TEMP:   3; 6HR MAX TEMP:  10;

EAGLE RIVER    CLOUDY     6  -3  67 W8        30.02R WCI  -7
6HR MIN TEMP:   6; 6HR MAX TEMP:  11;

LAND O LAKES   CLOUDY     8   1  75 W6        30.01R WCI  -3
6HR MIN TEMP:   7; 6HR MAX TEMP:  14;

PHILLIPS       CLEAR     -1  -4  87 CALM      30.07R
6HR MIN TEMP:  -2; 6HR MAX TEMP:  10;

TOMAHAWK       PTCLDY     2  -3  80 CALM      30.08R
6HR MIN TEMP:   1; 6HR MAX TEMP:  11;

MEDFORD        CLEAR      8  -2  65 W7        30.08R WCI  -4
6HR MIN TEMP:   8; 6HR MAX TEMP:  13;

MERRILL        MOCLDY     9   0  67 CALM      30.08R
6HR MIN TEMP:   9; 6HR MAX TEMP:  13;

$$

WIZ029-030-035-036-043>047-210100-
CENTRAL WISCONSIN

CITY           SKY/WX    TMP DP  RH WIND       PRES   REMARKS
WAUSAU         MOCLDY    10   1  67 W6        30.09R WCI   0
6HR MIN TEMP:  10; 6HR MAX TEMP:  13; 6HR PCP: TRACE;

MOSINEE        CLOUDY    10   1  67 W8        30.10R WCI  -1
MARSHFIELD     CLEAR      9  -2  61 W7        30.11R WCI  -2
6HR MIN TEMP:   9; 6HR MAX TEMP:  15;

STEVENS POINT  CLEAR     10  -2  58 W8        30.13R WCI  -2
6HR MIN TEMP:  10; 6HR MAX TEMP:  13;

WAUPACA        CLEAR     15   1  53 W9G16     30.14R WCI   3
6HR MIN TEMP:  15; 6HR MAX TEMP:  20;

WAUTOMA        CLEAR     14  -1  51 NW8       30.16R WCI   3
6HR MIN TEMP:  14; 6HR MAX TEMP:  19;

WISC RAPIDS    CLEAR     11  -3  53 W5        30.15R WCI   3
6HR MIN TEMP:  11; 6HR MAX TEMP:  16;

CAMP DOUGLAS   CLEAR      8  -1  66 W7        30.16R WCI  -3
6HR MIN TEMP:   8; 6HR MAX TEMP:  20;

$$

WIZ011>013-019>022-031-037>040-048>050-210100-
NORTHEAST WISCONSIN

CITY           SKY/WX    TMP DP  RH WIND       PRES   REMARKS
ANTIGO         CLEAR      5  -3  68 NW9       30.06R WCI  -9
6HR MIN TEMP:   5; 6HR MAX TEMP:  11;

SHAWANO        CLEAR     13   1  56 NW7       30.12R WCI   3
6HR MIN TEMP:  13; 6HR MAX TEMP:  19;

OCONTO         PTCLDY    12   0  57 W9        30.12R WCI   0
6HR MIN TEMP:  12; 6HR MAX TEMP:  20;

STURGEON BAY   MOCLDY    16   1  53 NW15      30.08R WCI   1
6HR MIN TEMP:  16; 6HR MAX TEMP:  19;

GREEN BAY      CLEAR     13   2  61 NW9       30.12R WCI   1
6HR MIN TEMP:  13; 6HR MAX TEMP:  19;

MANITOWOC      FLURRIES  15   4  61 NW15      30.12R WCI   0
6HR MIN TEMP:  15; 6HR MAX TEMP:  22; 6HR PCP: TRACE;

APPLETON       MOCLDY    14   1  57 W15       30.11R WCI  -1
CLINTONVILLE   MOCLDY    14   3  62 NW9       30.12R WCI   2
OSHKOSH        PTCLDY    14   1  56 NW9       30.13R WCI   2
6HR MIN TEMP:  14; 6HR MAX TEMP:  19;

$$

WIZ032>034-041-042-053>061-210100-
SOUTHWEST WISCONSIN

CITY           SKY/WX    TMP DP  RH WIND       PRES   REMARKS
LA CROSSE      CLEAR     17   2  51 W7        30.21R WCI   8
6HR MIN TEMP:  17; 6HR MAX TEMP:  22;

SPARTA         CLEAR     13   1  57 W3        30.19R
6HR MIN TEMP:  12; 6HR MAX TEMP:  21;

VIROQUA        CLEAR     13   2  63 NW8       30.15R WCI   1
6HR MIN TEMP:  12; 6HR MAX TEMP:  20;

BOSCOBEL       CLEAR     17   3  54 SW5       30.21R WCI  10
6HR MIN TEMP:  17; 6HR MAX TEMP:  24;

PRAIRIE DU CHI CLEAR     16   4  59 W7        30.22R WCI   6
6HR MIN TEMP:  16; 6HR MAX TEMP:  23;

PLATTEVILLE    CLEAR     15   6  65 W9        30.19R WCI   3
6HR MIN TEMP:  15; 6HR MAX TEMP:  22;

$$

WIZ056-057-062-063-064-067-068-210100-
SOUTH CENTRAL WISCONSIN

CITY           SKY/WX    TMP DP  RH WIND       PRES   REMARKS
REEDSBURG      FAIR      14  -1  50 W7        30.16R WCI   4
6HR MIN TEMP:  14; 6HR MAX TEMP:  22;

BARABOO/DELLS  FAIR      14  -2  48 W7        30.15R WCI   4
6HR MIN TEMP:  14; 6HR MAX TEMP:  21;

LONE ROCK      CLEAR     20   0  41 NW8       30.19R WCI  10
6HR MIN TEMP:  20; 6HR MAX TEMP:  27;

MINERAL POINT  FAIR      14   3  62 W8        30.15R WCI   3
MADISON        CLEAR     16  -2  45 NW8       30.16R WCI   5
6HR MIN TEMP:  16; 6HR MAX TEMP:  24;

MIDDLETON      CLEAR     18  -3  40 NW7       30.16R WCI   8
6HR MIN TEMP:  17; 6HR MAX TEMP:  26;

WATERTOWN      CLEAR     17   1  50 W10G16    30.14R WCI   4
6HR MIN TEMP:  17; 6HR MAX TEMP:  23;

MONROE         FAIR      18   9  68 W12       30.15R WCI   5
JANESVILLE     CLEAR     19   7  58 W9        30.16R WCI   9
$$

WIZ051-052-058>065-066-070>072-210100-
SOUTHEAST WISCONSIN

CITY           SKY/WX    TMP DP  RH WIND       PRES   REMARKS
MILWAUKEE      CLEAR     21  -1  38 NW10G20   30.13R WCI  10
6HR MIN TEMP:  21; 6HR MAX TEMP:  25;

WAUKESHA       CLEAR     18   1  49 W14G25    30.13R WCI   4
MILWAUKEE/TIMM NOT AVBL
RACINE         CLEAR     20   0  41 W8        30.15R WCI  10
6HR MIN TEMP:  20; 6HR MAX TEMP:  25;

BURLINGTON     CLEAR     17   4  57 W8        30.14R WCI   6
6HR MIN TEMP:  17; 6HR MAX TEMP:  23;

KENOSHA        CLEAR     19   4  51 W14       30.14R WCI   6
6HR MIN TEMP:  19; 6HR MAX TEMP:  25;

FOND DU LAC    CLEAR     13   0  56 NW8       30.13R WCI   2
6HR MIN TEMP:  13; 6HR MAX TEMP:  20;

SHEBOYGAN      CLEAR     15   2  56 NW12      30.12R WCI   2
6HR MIN TEMP:  14; 6HR MAX TEMP:  20;

WEST BEND      CLEAR     16   1  53 NW7       30.12R WCI   6
JUNEAU         CLEAR     16  -1  48 W6        30.14R WCI   7
6HR MIN TEMP:  16; 6HR MAX TEMP:  21;

$$

LSZ147-162-210100-
LAKE SUPERIOR

STATION/POSITION TIME  TEMP    WIND        PRES    WAVE
                       AIR SEA DIR/SP/G            HT/PER
                 (UTC) (F)     (DEG/KT/KT) (MB)    (FT/S)
DEVILS ISLAND    0000   16     300/ 18/ 22 1021.4R
PORT WING        2340   18     280/ 16/ 19 1020.7R
SAXON HARBOR     2300   13     200/  5/  9 1019.3R
$$

LMZ867-665-643>646-210100-
LAKE MICHIGAN

STATION/POSITION TIME  TEMP    WIND        PRES    WAVE


USA.gov is the U.S. government's official web portal to all federal, state and local government web resources and services.